Location: Allie Creek
(37.5926°N, 89.8526°W)
Time: 13:13:55
(UTC+00:00)

NOSS 2-2 (D) - Pass Details

Date: 26 September 2023
Orbit: 414 x 1757 km, 63.3° (Epoch: 29 October)

Event Time Altitude Azimuth Distance (km) Brightness Sun altitude
Rises 01:01:33 0° 204° (SSW) 2,667 7.0 -14.6°
Reaches altitude 10° 01:03:54 10° 201° (SSW) 1,656 5.9 -15.0°
Maximum altitude 01:07:22 60° 121° (ESE) 501 2.8 -15.7°
Enters shadow 01:09:03 25° 48° (NE) 898 4.1 -16.0°
